Showing default

TIANQI-6, 46810

Orbit data source: Space-Track

TIANQI-6, 46810 is a payload satellite owned by Guodian Gaokeji (CN) in LEO that was launched on Mon, 26 Oct 2020 UTC via a CHANG ZHENG 2C launch vehicle from the Xichang Space Center, China (XSC). Payload-class satellites include a variety of spacecraft equipped with specific instruments for various scientific and technological missions. These include communications satellites like Starlink; space stations such as the ISS; scientific satellites like the Hubble; Earth observation satellites from companies like Planet Labs, Umbra, and HawkEye 360; GPS; miniature CubeSats for education and research; and military/defense satellites.

Loading next visibility...
Identifier
46810, 2020-076D
Orbit
LEO
Last TLE update
13 hours ago
Origin
Manufacturer
Shanghai ASES
Mission
Operational Commercial Communications
Bus & Motor
STARLIGHTB, Unknown motor
Mass
40 kg wet, ~40 kg dry
Launch date (UTC)
2020-10-26 (5 years ago)
Launch vehicle
CHANG ZHENG 2C
Launch site
Xichang Space Center, China (XSC)
Object type
Payload
Rocket body
Debris
Shape & HBR
Box, Unknown HBR
Radar Cross Section
0.195 m², Medium (>0.1 m² and < 1m²)

Expand to show TLE details & history

TLE from 13 hours ago
0 TIANQI-6
1 46810U 20076D   25183.98317855  .00003014  00000-0  21759-3 0  9994
2 46810  35.0014  26.0040 0011957 335.1189  24.8942 15.03630690256037
Epoch: 2025-07-02T23:35Z
TLE epoch observation values (Epoch: 2025-07-02T23:35:46.626Z)
Latitude
-0.00004°
Longitude
110.80321°
Altitude
547.112 km
Speed
7.595 km/s
True Right ascension
01h 44m 00s
True Declination
0° 00' 00"
Sunlit
Object was in daylight at epoch
Visualization orbit readout
Latitude
3.25429°
Longitude
112.18685°
Altitude
546.8 km
Speed
7.595 km/s
Apparent Right ascension
04h 29m 41s
Apparent Declination
-48° 38' 24"
Sunlit
Object is in daylight
Visualization observer readout
Local Sidereal Time
00:08:50
Azimuth
141.471° SSE
Elevation
-15.614°
Doppler factor
1
Orbital elements
Apogee altitude
567.229 km
Perigee altitude
550.64 km
Semi-major axis
6,937.071 km
Eccentricity
0.0012
Inclination
35.0014°
RAAN
26.004°
Arg. of periapsis
335.1189°
True anomaly
Unknown
Mean anomaly
24.8942°
Eccentric anomaly
Unknown
Mean motion
3.75646 °/min
Orbital period
95.83 mins
BSTAR
0.00021759
Loading maneuver chart data...
Loading SW <> Apogee altitude chart data...
Loading historical data...
Loading historical data...
Loading historical data...
Loading historical data...
Loading historical data...
Loading historical data...
Loading historical data...
Other satellites on launch #76 in the year 2020 (2020-10-26 UTC)

TIANQI-6 Visibility forecast

Observer location: undefined°, undefined°

Span
Click to sort rows by Start time (UTC) header in descending order
Start Az.
Max El. time (UTC)
Max El. Az.
Max El.
End time (UTC)
End Az.
5 mins2025-07-03 17:22:10.913Z205.251° SW2025-07-03 17:25:10.913Z149.515° SSE21.052°2025-07-03 17:27:10.913Z115.814° SE
6 mins2025-07-03 19:03:10.913Z232.776° WSW2025-07-03 19:05:10.913Z184.838° SSW32.867°2025-07-03 19:09:10.913Z106.197° ESE
5 mins2025-07-03 20:44:10.913Z241.306° WSW2025-07-03 20:46:10.913Z193.217° SSW29.946°2025-07-03 20:49:10.913Z131.07° SE
|